Content
SEND FEEDBACK

Daily
Averages
Monthly
Summary
United States of America

CHICAGO, ILLINOIS


Home > North America > United States > Illinois
Elevation: 674 feet     Latitude: 41 59N     Longitude: 087 54W

WEATHER
 
SELECT A DAY
Number of Records: 195,162;   Date Range: 7/8/95 - 9/21/14
 
SHARE

PRINT THIS DATA

[ ← Previous Day ]
WEATHER ALMANAC - MARCH 26, 2013
[ Next Day → ]
[ °C ]   °F
Weather ElementAverageHighLow
Temperature35.2 °F42.1 °F (1:52 pm)28.9 °F (9:52 pm)
Dewpoint23.6 °F26.1 °F (7:52 pm)21 °F (2:52 pm)
Humidity64.1 %79 % (8:52 pm)43 % (2:52 pm)
Barometer30.20 in30.27 in (9:52 pm)30.12 in (1:52 am)
Wind Speed6.4 mph13.8 mph (10:52 am)
Wind Gust19.6 mph (10:52 am)
Weather ElementAverage
Visibility10 mi
Wind DirectionWSW (253.9 °)

Weather ElementTotal
Precipitation---
Heating Degree Days29.5 (Base 65)
Averaged from 23 records on March 26, 2013
WEATHER CONDITIONS BREAKOUT
WIND DIRECTION BREAKOUT
WEATHER BY HOUR - MARCH 26, 2013
[ °C ]   °F
Local TimeTemperatureDewpointHumidityBarometerVisibilityWind DirectionWind SpeedGust SpeedPrecipitationEventsConditions
1:52 AM30.0 °F23.0 °F75 %30.12 in10.0 miNW (320°)3.5 mphScattered Clouds
2:52 AM30.0 °F23.0 °F75 %30.12 in10.0 miCalmMostly Cloudy
3:52 AM30.0 °F23.0 °F75 %30.12 in10.0 miNNW (340°)3.5 mphScattered Clouds
4:52 AM30.0 °F23.0 °F75 %30.13 in10.0 miNW (320°)8.1 mphMostly Cloudy
5:52 AM30.0 °F23.0 °F75 %30.15 in10.0 miNW (320°)4.6 mphOvercast
6:52 AM30.9 °F24.1 °F76 %30.16 in10.0 miNW (320°)5.8 mphOvercast
7:52 AM33.1 °F25.0 °F72 %30.19 in10.0 miNW (320°)11.5 mphOvercast
8:52 AM34.0 °F25.0 °F70 %30.20 in10.0 miNNW (330°)8.1 mphOvercast
9:52 AM36.0 °F24.1 °F62 %30.21 in10.0 miNNW (330°)12.7 mphOvercast
10:52 AM39.0 °F23.0 °F53 %30.21 in10.0 miNW (320°)13.8 mph19.6 mphMostly Cloudy
11:52 AM39.9 °F23.0 °F51 %30.21 in10.0 miNNW (330°)9.2 mphScattered Clouds
12:52 PM41.0 °F23.0 °F49 %30.21 in10.0 miNNW (330°)6.9 mph18.4 mphMostly Cloudy
1:52 PM42.1 °F23.0 °F47 %30.20 in10.0 miNNW (330°)9.2 mph17.3 mphOvercast
2:52 PM42.1 °F21.0 °F43 %30.20 in10.0 miNNW (340°)8.1 mphOvercast
3:52 PM41.0 °F23.0 °F49 %30.20 in10.0 miNW (310°)12.7 mph18.4 mphOvercast
4:52 PM41.0 °F23.0 °F49 %30.21 in10.0 miNNW (330°)10.4 mphOvercast
5:52 PM39.9 °F23.0 °F51 %30.22 in10.0 miNNW (330°)9.2 mphOvercast
6:52 PM37.0 °F24.1 °F59 %30.24 in10.0 miNNW (330°)5.8 mphClear
7:52 PM36.0 °F26.1 °F67 %30.25 in10.0 miCalmPartly Cloudy
8:52 PM30.9 °F25.0 °F79 %30.26 in10.0 miCalmClear
9:52 PM28.9 °F23.0 °F78 %30.27 in10.0 miCalmClear
10:52 PM33.1 °F25.0 °F72 %30.27 in10.0 miWNW (290°)3.5 mphMostly Cloudy
11:52 PM33.1 °F25.0 °F72 %30.27 in10.0 miCalmOvercast
Hourly data recorded from KPWK, located miles away from Chicago, Illinois







STORIES FROM OUR PARTNERS